DW6885 Weather Reports


Display with metric or nautical units.
time (UTC)temp
F
wind
direction
speed
MPH
gust
MPH
rain 1hr
in
rain 24hr
in
rain mn
in
humidity
%
barometer
mb
20140725225553 71 29 0.0 0.0 0.00 0.00 0.00 75 1013.2
20140725225305 70 29 0.0 0.0 0.00 0.00 0.00 76 1013.1
20140725223805 71 29 0.0 1.0 0.00 0.00 0.00 74 1013.0
20140725222551 73 29 0.0 2.0 0.00 0.00 0.00 68 1013.0
20140725222310 72 29 0.0 2.0 0.00 0.00 0.00 70 1013.0
20140725221551 74 29 0.0 1.0 0.00 0.00 0.00 68 1013.1
20140725220809 74 184 0.0 2.0 0.00 0.00 0.00 63 1013.2
20140725220551 75 184 1.0 3.0 0.00 0.00 0.00 63 1013.1
20140725215552 74 20 0.0 3.0 0.00 0.00 0.00 63 1013.1
20140725215308 74 20 0.0 2.0 0.00 0.00 0.00 65 1013.1
20140725213810 74 15 0.0 1.0 0.00 0.00 0.00 69 1013.1
20140725213551 75 15 0.0 2.0 0.00 0.00 0.00 62 1013.2
20140725212551 76 13 0.0 3.0 0.00 0.00 0.00 64 1013.2
20140725212306 75 13 0.0 4.0 0.00 0.00 0.00 63 1013.1
20140725210806 76 5 1.0 4.0 0.00 0.00 0.00 52 1012.9
20140725210551 77 40 0.0 5.0 0.00 0.00 0.00 61 1012.9
20140725205207 76 360 0.0 5.0 0.00 0.00 0.00 53 1013.0
20140725204552 77 337 2.0 7.0 0.00 0.00 0.00 53 1013.0
20140725203705 77 36 1.0 3.0 0.00 0.00 0.00 56 1013.0
20140725203551 77 333 1.0 3.0 0.00 0.00 0.00 57 1013.0
20140725202551 77 212 2.0 5.0 0.00 0.00 0.00 52 1013.1
20140725202206 77 45 0.0 4.0 0.00 0.00 0.00 57 1013.2
20140725201551 77 46 1.0 3.0 0.00 0.00 0.00 54 1013.3
20140725200706 76 42 1.0 5.0 0.00 0.00 0.00 54 1013.2
20140725195553 76 202 2.0 7.0 0.00 0.00 0.00 55 1013.3
20140725195209 76 288 1.0 6.0 0.00 0.00 0.00 57 1013.2
20140725193805 76 355 1.0 7.0 0.00 0.00 0.00 54 1013.4
20140725192551 77 254 2.0 6.0 0.00 0.00 0.00 53 1013.5
20140725192209 76 188 3.0 7.0 0.00 0.00 0.00 54 1013.4
20140725191551 76 208 3.0 6.0 0.00 0.00 0.00 54 1013.5
20140725190608 76 99 0.0 6.0 0.00 0.00 0.00 53 1013.4
20140725190551 76 70 1.0 7.0 0.00 0.00 0.00 53 1013.4
20140725185552 77 186 2.0 6.0 0.00 0.00 0.00 56 1013.4
20140725185207 76 238 1.0 6.0 0.00 0.00 0.00 59 1013.5
20140725184552 76 337 1.0 7.0 0.00 0.00 0.00 55 1013.6
20140725183551 76 313 2.0 6.0 0.00 0.00 0.00 59 1013.7
20140725183542 76 231 1.0 6.0 0.00 0.00 0.00 57 1013.6
20140725182109 75 285 1.0 5.0 0.00 0.00 0.00 59 1013.7
20140725180608 75 140 0.0 5.0 0.00 0.00 0.00 56 1013.7
20140725175552 75 352 2.0 6.0 0.00 0.00 0.00 54 1013.7
20140725175109 75 308 2.0 6.0 0.00 0.00 0.00 56 1013.7
20140725174554 75 127 2.0 5.0 0.00 0.00 0.00 55 1013.6
20140725173607 74 122 1.0 8.0 0.00 0.00 0.00 59 1013.7
20140725173552 75 136 2.0 8.0 0.00 0.00 0.00 56 1013.7
20140725172550 75 32 1.0 12.0 0.00 0.00 0.00 56 1013.8
20140725172012 74 101 2.0 12.0 0.00 0.00 0.00 56 1013.9
20140725171553 75 336 3.0 6.0 0.00 0.00 0.00 55 1014.0
20140725170509 74 326 2.0 6.0 0.00 0.00 0.00 55 1014.1
20140725165551 74 255 2.0 6.0 0.00 0.00 0.00 55 1014.1
20140725165008 74 5 2.0 7.0 0.00 0.00 0.00 62 1014.1
20140725164551 74 193 2.0 7.0 0.00 0.00 0.00 56 1014.1
20140725163551 74 42 1.0 5.0 0.00 0.00 0.00 59 1014.3
20140725163507 73 72 1.0 5.0 0.00 0.00 0.00 58 1014.3
20140725162552 73 29 1.0 3.0 0.00 0.00 0.00 56 1014.1
20140725162011 73 5 0.0 3.0 0.00 0.00 0.00 59 1014.2
20140725161552 74 5 1.0 3.0 0.00 0.00 0.00 56 1014.2
20140725160551 73 28 1.0 3.0 0.00 0.00 0.00 57 1014.2
20140725160506 73 49 0.0 4.0 0.00 0.00 0.00 57 1014.2
20140725155007 72 187 2.0 5.0 0.00 0.00 0.00 61 1014.5
20140725153550 72 232 0.0 5.0 0.00 0.00 0.00 63 1014.7
20140725153407 72 232 0.0 5.0 0.00 0.00 0.00 63 1014.7
20140725151910 71 336 0.0 3.0 0.00 0.00 0.00 64 1014.8
20140725150550 71 30 0.0 5.0 0.00 0.00 0.00 70 1014.9
20140725150408 71 30 0.0 5.0 0.00 0.00 0.00 70 1014.9
20140725145550 71 9 1.0 3.0 0.00 0.00 0.00 67 1015.0
20140725144905 70 29 0.0 4.0 0.00 0.00 0.00 68 1015.0
20140725144551 70 342 0.0 3.0 0.00 0.00 0.00 68 1015.0
20140725143506 69 355 0.0 4.0 0.00 0.00 0.00 68 1015.1
20140725141907 69 26 0.0 4.0 0.00 0.00 0.00 69 1015.2
20140725140411 68 48 0.0 4.0 0.00 0.00 0.00 74 1015.3
20140725134809 66 30 0.0 3.0 0.00 0.00 0.00 72 1015.1
20140725134551 66 355 0.0 3.0 0.00 0.00 0.00 74 1015.1
20140725133305 64 319 0.0 2.0 0.00 0.00 0.00 78 1015.1
20140725132550 63 306 1.0 3.0 0.00 0.00 0.00 83 1015.0
20140725131809 61 306 0.0 3.0 0.00 0.00 0.00 84 1015.1
20140725130550 59 38 0.0 1.0 0.00 0.00 0.00 97 1015.0
20140725130405 59 38 0.0 1.0 0.00 0.00 0.00 97 1015.0
20140725125550 58 38 0.0 0.0 0.00 0.00 0.00 99 1014.9
20140725124905 57 38 0.0 0.0 0.00 0.00 0.00 100 1014.9
20140725123550 56 38 0.0 0.0 0.00 0.00 0.00 99 1014.9
20140725123304 56 38 0.0 0.0 0.00 0.00 0.00 99 1014.9
20140725121904 55 38 0.0 0.0 0.00 0.00 0.00 100 1014.8
20140725121550 55 38 0.0 0.0 0.00 0.00 0.00 99 1014.8
20140725120304 53 38 0.0 0.0 0.00 0.00 0.00 99 1014.6
20140725114709 52 38 0.0 0.0 0.00 0.00 0.00 99 1014.5
20140725114551 52 38 0.0 0.0 0.00 0.00 0.00 99 1014.5
20140725113550 51 38 0.0 0.0 0.00 0.00 0.00 99 1014.3
20140725113205 50 38 0.0 0.0 0.00 0.00 0.00 99 1014.3
20140725111706 50 38 0.0 0.0 0.00 0.00 0.00 99 1014.4
20140725111551 50 38 0.0 0.0 0.00 0.00 0.00 99 1014.4
20140725110205 49 38 0.0 0.0 0.00 0.00 0.00 99 1014.3
20140725105549 49 38 0.0 0.0 0.00 0.00 0.00 99 1014.3
20140725104804 48 38 0.0 0.0 0.00 0.00 0.00 99 1014.3
20140725104550 48 38 0.0 0.0 0.00 0.00 0.00 98 1014.3
20140725103550 48 38 0.0 0.0 0.00 0.00 0.00 98 1014.2
20140725103205 47 38 0.0 0.0 0.00 0.00 0.00 98 1014.2
20140725102549 48 38 0.0 0.0 0.00 0.00 0.00 98 1014.2
20140725101610 47 38 0.0 0.0 0.00 0.00 0.00 98 1014.1
20140725100550 47 38 0.0 0.0 0.00 0.00 0.00 98 1014.0
20140725100106 47 38 0.0 0.0 0.00 0.01 0.00 98 1014.0
20140725095550 47 38 0.0 0.0 0.00 0.00 0.00 98 1013.9
20140725094608 47 38 0.0 0.0 0.00 0.01 0.00 97 1013.9
20140725094551 47 38 0.0 0.0 0.00 0.01 0.00 97 1013.8
20140725093551 47 38 0.0 0.0 0.00 0.01 0.00 97 1013.8
20140725093104 47 38 0.0 0.0 0.00 0.01 0.00 97 1013.7
20140725092549 48 38 0.0 0.0 0.00 0.01 0.00 97 1013.7
20140725091611 47 38 0.0 0.0 0.00 0.01 0.00 97 1013.5
20140725091551 48 38 0.0 0.0 0.00 0.01 0.00 97 1013.6
20140725090105 47 38 0.0 0.0 0.00 0.01 0.00 97 1013.3
20140725085550 48 38 0.0 0.0 0.00 0.01 0.00 97 1013.3
20140725084705 48 38 0.0 0.0 0.00 0.01 0.00 97 1013.3
20140725084552 48 38 0.0 0.0 0.00 0.01 0.00 97 1013.4
20140725083551 48 38 0.0 0.0 0.00 0.01 0.00 97 1013.3
20140725083005 48 38 0.0 0.0 0.00 0.01 0.00 97 1013.3
20140725081510 48 38 0.0 0.0 0.00 0.01 0.00 97 1013.2
20140725080004 49 38 0.0 0.0 0.00 0.01 0.00 97 1013.0
20140725075551 49 38 0.0 0.0 0.00 0.01 0.00 97 1013.0
20140725074704 49 38 0.0 0.0 0.00 0.01 0.00 97 1013.1
20140725074551 49 38 0.0 0.0 0.00 0.01 0.00 97 1013.1
20140725073005 49 38 0.0 0.0 0.00 0.01 0.00 97 1012.9
20140725072605 50 38 0.0 0.0 0.00 0.01 0.00 97 1012.9
20140725071603 50 38 0.0 0.0 0.00 0.01 0.00 97 1012.9
20140725071508 50 38 0.0 0.0 0.00 0.01 0.00 97 1012.9
20140725070656 50 38 0.0 0.0 0.00 0.01 0.00 97 1012.9
20140725070006 50 38 0.0 0.0 0.00 0.03 0.00 97 1012.9
20140725064650 51 38 0.0 0.0 0.00 0.02 0.00 97 1012.7
20140725064509 50 38 0.0 0.0 0.00 0.03 0.00 97 1012.7
20140725063656 51 38 0.0 0.0 0.00 0.03 0.00 97 1012.8
20140725062909 50 38 0.0 0.0 0.00 0.03 0.00 96 1012.8
20140725062603 51 38 0.0 0.0 0.00 0.03 0.00 96 1012.8
20140725061608 51 38 0.0 0.0 0.00 0.04 0.00 96 1012.7
20140725061408 51 38 0.0 0.0 0.00 0.03 0.00 96 1012.8
20140725055905 51 38 0.0 0.0 0.00 0.04 0.00 96 1012.7
20140725055656 52 38 0.0 0.0 0.00 0.04 0.00 96 1012.8
20140725054608 52 38 0.0 0.0 0.00 0.04 0.00 96 1012.6
20140725054406 52 38 0.0 0.0 0.00 0.04 0.00 96 1012.6
20140725052905 52 38 0.0 0.0 0.00 0.04 0.00 96 1012.6
20140725052636 53 38 0.0 0.0 0.00 0.04 0.00 96 1012.6
20140725051604 53 38 0.0 0.0 0.00 0.04 0.00 95 1012.4
20140725051405 53 38 0.0 0.0 0.00 0.04 0.00 95 1012.4
20140725050659 53 38 0.0 0.0 0.00 0.04 0.00 95 1012.3
20140725045905 53 38 0.0 0.0 0.00 0.04 0.00 95 1012.2
20140725045606 54 38 0.0 0.0 0.00 0.04 0.00 95 1012.2
20140725044404 54 38 0.0 0.0 0.00 0.04 0.00 95 1012.4
20140725043657 54 38 0.0 0.0 0.00 0.04 0.00 95 1012.4
20140725042906 54 38 0.0 0.0 0.00 0.04 0.00 95 1012.3
20140725041602 55 38 0.0 0.0 0.00 0.04 0.00 95 1012.2
20140725041307 55 38 0.0 0.0 0.00 0.04 0.00 95 1012.1
20140725035809 55 38 0.0 0.0 0.00 0.06 0.04 94 1012.2
20140725035550 56 38 0.0 0.0 0.00 0.05 0.04 94 1012.1
20140725034551 56 38 0.0 0.0 0.00 0.05 0.04 94 1012.0
20140725034308 56 38 0.0 0.0 0.00 0.06 0.04 94 1012.0
20140725033550 56 38 0.0 0.0 0.00 0.05 0.04 94 1011.8
20140725032803 56 38 0.0 0.0 0.00 0.06 0.04 94 1011.8
20140725032550 57 38 0.0 0.0 0.00 0.06 0.04 94 1011.9
20140725031308 57 38 0.0 0.0 0.00 0.06 0.04 93 1011.6
20140725030550 57 38 0.0 0.0 0.00 0.08 0.04 93 1011.5
20140725025805 57 38 0.0 0.0 0.00 0.26 0.04 93 1011.4
20140725025549 58 38 0.0 0.0 0.00 0.11 0.04 93 1011.4
20140725024550 58 38 0.0 1.0 0.00 0.15 0.04 92 1011.2
20140725024304 58 38 0.0 1.0 0.00 0.26 0.04 92 1011.2
20140725023550 58 38 0.0 0.0 0.00 0.20 0.04 92 1011.1
20140725022903 58 38 0.0 0.0 0.00 0.26 0.04 91 1011.2
20140725022550 59 38 0.0 0.0 0.00 0.25 0.04 91 1011.2
20140725021406 59 38 0.0 0.0 0.00 0.26 0.04 90 1011.1
20140725020550 59 38 0.0 0.0 0.00 0.31 0.04 89 1011.1
20140725015705 59 38 0.0 0.0 0.00 0.44 0.04 88 1011.0
20140725015550 60 38 0.0 0.0 0.00 0.35 0.04 88 1011.1
20140725014551 60 38 0.0 0.0 0.00 0.38 0.04 87 1010.9
20140725014306 60 38 0.0 0.0 0.00 0.44 0.04 87 1010.8
20140725013550 61 38 0.0 0.0 0.00 0.41 0.04 87 1010.8
20140725012709 60 38 0.0 0.0 0.00 0.44 0.04 86 1010.8
20140725012550 61 38 0.0 0.0 0.00 0.43 0.04 86 1010.7
20140725011206 61 38 0.0 0.0 0.00 0.44 0.04 85 1010.6
20140725005709 62 38 0.0 0.0 0.00 0.54 0.04 87 1010.5
20140725005549 62 38 0.0 0.0 0.00 0.50 0.04 86 1010.6
20140725004206 62 38 0.0 1.0 0.00 0.54 0.04 84 1010.4
20140725002704 63 38 0.0 0.0 0.00 0.54 0.04 82 1010.1
20140725002551 64 38 0.0 0.0 0.00 0.54 0.04 81 1010.1
20140725001109 65 38 0.0 1.0 0.00 0.54 0.04 82 1010.0
20140724235611 66 40 0.0 1.0 0.00 0.54 0.04 80 1009.9
20140724235550 66 40 0.0 1.0 0.00 0.54 0.04 81 1009.9
20140724234551 67 320 0.0 2.0 0.00 0.54 0.04 81 1009.8
20140724234107 67 320 0.0 2.0 0.00 0.54 0.04 78 1009.7
20140724233550 68 323 0.0 3.0 0.00 0.54 0.04 79 1009.7
20140724232609 68 322 0.0 4.0 0.00 0.54 0.04 72 1009.7
20140724232549 68 334 0.0 3.0 0.00 0.54 0.04 76 1009.7
20140724231550 69 34 0.0 3.0 0.00 0.54 0.04 70 1009.6
20140724231110 68 32 0.0 4.0 0.00 0.54 0.04 70 1009.5
20140724230552 69 0 1.0 3.0 0.00 0.54 0.04 69 1009.4